Regional Weather Roundup
Issued by NWS

Home | Current Version | Previous Version | Text Only | Print | Product List | Glossary Off
Versions: 1 2 3 4 5 6 7 8 9 10 11 12 13 14 15 16 17 18 19 20 21 22 23 24 25 26 27 28 29 30 31 32 33 34 35 36 37 38 39 40 41 42 43 44 45 46 47 48 49 50

305
ASUS45 KCYS 272110
RWRWY

WYOMING REGIONAL WEATHER ROUNDUP
NATIONAL WEATHER SERVICE CHEYENNE WY
300 PM MDT FRI MAY 27 2016

NOTE:  "FAIR" INDICATES FEW OR NO CLOUDS BELOW 12,000 FEET
WITH NO SIGNIFICANT WEATHER AND/OR OBSTRUCTIONS TO VISIBILITY.

WYZ001-272200-
YELLOWSTONE NATIONAL PARK

CITY           SKY/WX    TMP DP  RH WIND       PRES   REMARKS
LK YELLOWSTONE   N/A     44  37  76 CALM      30.02F
W YELLOWSTONE  NOT AVBL

$$
WYZ002>013-054>058-071-098>099-272200-
NORTHERN WYOMING

CITY           SKY/WX    TMP DP  RH WIND       PRES   REMARKS
JACKSON        PTSUNNY   54  36  50 SE12      29.96F
CODY           PTSUNNY   63  39  42 SE5       29.83F
GREYBULL       FAIR      71  34  25 CALM      29.79F
WORLAND        FAIR      71  34  25 N5        29.82F
SHERIDAN       PTSUNNY   66  44  45 W6        29.84F
BUFFALO        LGT RAIN  55  48  77 MISG      29.90S
GILLETTE       FAIR      66  42  41 VRB6G20   29.85F
HULETT         CLOUDY    61  45  55 E6        29.88F
NEWCASTLE      FAIR      63  32  31 NW7G16    29.86F

$$
WYZ014>020-022>026-101>103-272200-
CENTRAL WYOMING

CITY           SKY/WX    TMP DP  RH WIND       PRES   REMARKS
BIG PINEY      PTSUNNY   58  33  39 MISG      29.96F
PINEDALE       CLOUDY    55  30  38 CALM      29.97S
DUBOIS         CLOUDY    57  23  26 N10G22    29.91F
LANDER         FAIR      66  35  31 SE10      29.85F
RIVERTON       CLOUDY    66  34  30 SE5       29.86F
CASPER         PTSUNNY   60  40  47 NE15      29.87F
DOUGLAS          N/A    N/A N/A N/A MISG      29.87F

$$
WYZ021-027>030-104>119-272200-
SOUTHERN WYOMING

CITY           SKY/WX    TMP DP  RH WIND       PRES   REMARKS
EVANSTON       CLOUDY    51  37  58 SW14G21   30.01F
KEMMERER         N/A     54  32  43 SW13      29.99F
FORT BRIDGER   PTCLDY    63  30  29 NW15G22   30.01F
ROCK SPRINGS   LGT RAIN  56  37  49 SW20      29.94F
DIXON          MOCLDY    63  35  34 N16G23    29.95S
RAWLINS        PTSUNNY   61  27  27 VRB7      29.93F
SARATOGA       FAIR      59  32  36 NW5G16    29.94F
LARAMIE        PTSUNNY   53  33  46 NE10      29.93F
CHEYENNE       CLOUDY    53  42  66 E15       29.92R
TORRINGTON     PTSUNNY   60  49  66 SE16      29.87F
PINE BLUFFS    CLOUDY    52  45  76 NE12      29.93S

$$




USA.gov is the U.S. government's official web portal to all federal, state and local government web resources and services.